Tracking 19709 objects as of 17-Jun-2019
HD Live streaming from Space Station
objects crossing your sky now

METEOR 2-17 DEB

Track METEOR 2-17 DEB now!
10-day predictions


NORAD ID: 38543
Int'l Code: 1988-005AW
Perigee: 830.4 km
Apogee: 845.2 km
Inclination: 82.5 °
Period: 101.5 minutes
Semi major axis: 7208 km
RCS: 0.011 m2 (small)
Launch date: January 30, 1988
Source: Commonwealth of Independent States (former USSR) (CIS)
Launch site: PLESETSK MISSILE AND SPACE COMPLEX (PKMTR)

Note: This is SATELLITE DEBRIS
aabbcc
Your satellite tracking list
Your tracking list is empty




NASA's NSSDC Master Catalog

Two Line Element Set (TLE):
1 38543U 88005AW  19161.35607282 +.00001115 +00000-0 +53263-3 0  9995
2 38543 082.5364 027.8731 0010276 190.9532 169.1425 14.18421341748978
Source of the keplerian elements: AFSPC